When you browse on this site, cookies collect data to enhance your experience and personalize the content and advertising you see.
Visit our Privacy Policy to learn more. By continuing to use the site, you agree to this use of cookies and data.
  • In Spain
  • List of Countries
  • For 7 days
  • Water Temperature
  • Satellite Maps
  • Weather Map
  • Weather Widgets
  • user-avatar
    Login

    Hourly Weather Bocharovschina

    Today, 15 July, Monday

    Time Temperature Precipitation Wind Pressure Humidity
    00:00 +13°C° 0.1 mm 2 mps 742 mmHg 91%
    01:00 +13°C° 0.1 mm 1 mps 742 mmHg 90%
    02:00 +12°C° 0 mm 1 mps 743 mmHg 89%
    03:00 +12°C° 0 mm 1 mps 743 mmHg 89%
    04:00 +13°C° 0 mm 1 mps 742 mmHg 89%
    05:00 +12°C° 0 mm 0 mps 742 mmHg 89%
    06:00 +14°C° 0 mm 1 mps 743 mmHg 86%
    07:00 +15°C° 0 mm 1 mps 743 mmHg 84%
    08:00 +16°C° 0 mm 1 mps 743 mmHg 80%
    09:00 +18°C° 0.2 mm 1 mps 743 mmHg 79%
    10:00 +17°C° 0.2 mm 2 mps 742 mmHg 77%
    11:00 +18°C° 0.2 mm 2 mps 742 mmHg 76%
    12:00 +19°C° 0.2 mm 2 mps 742 mmHg 73%
    13:00 +19°C° 0.2 mm 2 mps 742 mmHg 70%
    14:00 +20°C° 0 mm 2 mps 743 mmHg 65%
    15:00 +20°C° 0.1 mm 2 mps 743 mmHg 66%
    16:00 +21°C° 0.1 mm 1 mps 742 mmHg 66%
    17:00 +21°C° 0.1 mm 1 mps 742 mmHg 67%
    18:00 +18°C° 0 mm 2 mps 742 mmHg 74%
    19:00 +17°C° 0 mm 2 mps 742 mmHg 81%
    20:00 +15°C° 0 mm 2 mps 742 mmHg 88%
    21:00 +14°C° 0 mm 2 mps 742 mmHg 90%
    22:00 +14°C° 0 mm 2 mps 742 mmHg 92%
    23:00 +13°C° 0 mm 1 mps 742 mmHg 94%

    Tomorrow, 16 July, Tuesday

    Time Temperature Precipitation Wind Pressure Humidity
    00:00 +12°C° 0 mm 2 mps 742 mmHg 94%
    01:00 +12°C° 0 mm 2 mps 742 mmHg 95%
    02:00 +12°C° 0 mm 2 mps 742 mmHg 95%
    03:00 +12°C° 0 mm 2 mps 742 mmHg 96%
    04:00 +12°C° 0 mm 2 mps 742 mmHg 97%
    05:00 +12°C° 0 mm 2 mps 741 mmHg 97%
    06:00 +14°C° 0 mm 2 mps 742 mmHg 94%
    07:00 +15°C° 0 mm 2 mps 742 mmHg 90%
    08:00 +16°C° 0 mm 2 mps 742 mmHg 87%
    09:00 +18°C° 0.3 mm 1 mps 741 mmHg 85%
    10:00 +19°C° 0.3 mm 1 mps 741 mmHg 83%
    11:00 +20°C° 0.3 mm 1 mps 741 mmHg 81%
    12:00 +20°C° 0.7 mm 1 mps 741 mmHg 79%
    13:00 +21°C° 0.7 mm 1 mps 741 mmHg 78%
    14:00 +21°C° 0.7 mm 1 mps 740 mmHg 77%
    15:00 +21°C° 0.6 mm 1 mps 740 mmHg 78%
    16:00 +21°C° 0.6 mm 1 mps 740 mmHg 78%
    17:00 +21°C° 0.6 mm 1 mps 740 mmHg 79%
    18:00 +20°C° 0.3 mm 1 mps 739 mmHg 84%
    19:00 +18°C° 0.3 mm 1 mps 739 mmHg 88%
    20:00 +16°C° 0.3 mm 1 mps 739 mmHg 92%
    21:00 +15°C° 0 mm 1 mps 739 mmHg 92%
    22:00 +15°C° 0 mm 1 mps 739 mmHg 93%
    23:00 +14°C° 0 mm 1 mps 739 mmHg 93%

    Day after tomorrow, 17 July, Wednesday

    Time Temperature Precipitation Wind Pressure Humidity
    00:00 +14°C° 0.1 mm 1 mps 739 mmHg 94%
    01:00 +14°C° 0.1 mm 1 mps 739 mmHg 94%
    02:00 +13°C° 0.1 mm 1 mps 738 mmHg 94%
    03:00 +14°C° 0.5 mm 1 mps 738 mmHg 95%
    04:00 +14°C° 0.5 mm 1 mps 738 mmHg 95%
    05:00 +14°C° 0.5 mm 1 mps 738 mmHg 96%
    06:00 +14°C° 0.4 mm 1 mps 738 mmHg 95%
    07:00 +15°C° 0.4 mm 1 mps 738 mmHg 94%
    08:00 +16°C° 0.4 mm 1 mps 738 mmHg 93%
    09:00 +16°C° 0.4 mm 1 mps 738 mmHg 90%
    10:00 +18°C° 0.4 mm 1 mps 737 mmHg 88%
    11:00 +18°C° 0.4 mm 2 mps 737 mmHg 85%
    12:00 +18°C° 0.5 mm 2 mps 737 mmHg 84%
    13:00 +18°C° 0.5 mm 2 mps 737 mmHg 83%
    14:00 +18°C° 0.5 mm 2 mps 737 mmHg 82%
    15:00 +19°C° 0.4 mm 2 mps 737 mmHg 79%
    16:00 +20°C° 0.4 mm 1 mps 737 mmHg 77%
    17:00 +20°C° 0.4 mm 1 mps 736 mmHg 74%
    18:00 +18°C° 0.2 mm 1 mps 736 mmHg 85%
    19:00 +16°C° 0.2 mm 1 mps 736 mmHg 88%
    20:00 +15°C° 0.2 mm 1 mps 736 mmHg 91%
    21:00 +14°C° 0 mm 1 mps 736 mmHg 92%
    22:00 +14°C° 0 mm 1 mps 736 mmHg 92%
    23:00 +13°C° 0 mm 1 mps 736 mmHg 93%

    18 July, Thursday

    Time Temperature Precipitation Wind Pressure Humidity
    00:00 +13°C° 0 mm 1 mps 736 mmHg 94%
    01:00 +12°C° 0 mm 2 mps 736 mmHg 95%
    02:00 +12°C° 0 mm 2 mps 736 mmHg 95%
    03:00 +12°C° 0 mm 2 mps 736 mmHg 96%
    04:00 +12°C° 0 mm 2 mps 736 mmHg 96%
    05:00 +12°C° 0 mm 2 mps 736 mmHg 97%
    06:00 +13°C° 0 mm 2 mps 736 mmHg 94%
    07:00 +15°C° 0 mm 2 mps 736 mmHg 92%
    08:00 +16°C° 0 mm 3 mps 736 mmHg 89%
    09:00 +17°C° 0.3 mm 3 mps 736 mmHg 86%
    10:00 +18°C° 0.3 mm 3 mps 736 mmHg 83%
    11:00 +19°C° 0.3 mm 4 mps 736 mmHg 81%
    12:00 +19°C° 1.1 mm 4 mps 736 mmHg 82%
    13:00 +18°C° 1.1 mm 4 mps 736 mmHg 83%
    14:00 +18°C° 1.1 mm 4 mps 736 mmHg 84%
    15:00 +18°C° 0.4 mm 4 mps 736 mmHg 85%
    16:00 +17°C° 0.4 mm 4 mps 736 mmHg 86%
    17:00 +17°C° 0.4 mm 3 mps 736 mmHg 87%
    18:00 +16°C° 0.1 mm 3 mps 736 mmHg 90%
    19:00 +15°C° 0.1 mm 2 mps 736 mmHg 93%
    20:00 +14°C° 0.1 mm 2 mps 736 mmHg 97%
    21:00 +14°C° 0 mm 2 mps 736 mmHg 97%
    22:00 +14°C° 0 mm 1 mps 737 mmHg 97%
    23:00 +13°C° 0 mm 1 mps 737 mmHg 98%

    19 July, Friday

    Time Temperature Precipitation Wind Pressure Humidity
    00:00 +13°C° 0 mm 1 mps 737 mmHg 98%
    01:00 +13°C° 0 mm 1 mps 737 mmHg 98%
    02:00 +13°C° 0 mm 1 mps 737 mmHg 98%
    03:00 +13°C° 0 mm 1 mps 737 mmHg 98%
    04:00 +13°C° 0 mm 1 mps 737 mmHg 97%
    05:00 +13°C° 0 mm 2 mps 737 mmHg 97%
    06:00 +14°C° 0.1 mm 2 mps 738 mmHg 95%
    07:00 +15°C° 0.1 mm 2 mps 738 mmHg 93%
    08:00 +16°C° 0.1 mm 2 mps 738 mmHg 92%
    09:00 +17°C° 1.1 mm 3 mps 738 mmHg 91%
    10:00 +17°C° 1.1 mm 3 mps 739 mmHg 90%
    11:00 +18°C° 1.1 mm 4 mps 739 mmHg 90%
    12:00 +17°C° 0.8 mm 4 mps 739 mmHg 92%
    13:00 +15°C° 0.8 mm 5 mps 739 mmHg 94%
    14:00 +14°C° 0.8 mm 5 mps 740 mmHg 95%
    15:00 +14°C° 0.1 mm 5 mps 740 mmHg 96%
    16:00 +14°C° 0.1 mm 5 mps 740 mmHg 96%
    17:00 +13°C° 0.1 mm 4 mps 740 mmHg 97%
    18:00 +14°C° 0 mm 4 mps 741 mmHg 96%
    19:00 +14°C° 0 mm 4 mps 741 mmHg 96%
    20:00 +14°C° 0 mm 4 mps 741 mmHg 96%
    21:00 +14°C° 0 mm 4 mps 742 mmHg 96%
    22:00 +14°C° 0 mm 4 mps 742 mmHg 96%
    23:00 +14°C° 0 mm 4 mps 742 mmHg 96%

    20 July, Saturday

    Time Temperature Precipitation Wind Pressure Humidity
    00:00 +14°C° 0 mm 4 mps 743 mmHg 96%
    01:00 +14°C° 0 mm 4 mps 743 mmHg 97%
    02:00 +14°C° 0 mm 4 mps 743 mmHg 97%
    03:00 +14°C° 0 mm 4 mps 744 mmHg 97%
    04:00 +14°C° 0 mm 3 mps 744 mmHg 97%
    05:00 +14°C° 0 mm 3 mps 744 mmHg 97%
    06:00 +14°C° 0 mm 3 mps 745 mmHg 95%
    07:00 +16°C° 0 mm 3 mps 745 mmHg 94%
    08:00 +15°C° 0 mm 4 mps 745 mmHg 92%
    09:00 +17°C° 0.1 mm 4 mps 746 mmHg 88%
    10:00 +18°C° 0.1 mm 4 mps 746 mmHg 84%
    11:00 +20°C° 0.1 mm 4 mps 746 mmHg 81%
    12:00 +20°C° 0.4 mm 4 mps 746 mmHg 80%
    13:00 +20°C° 0.4 mm 4 mps 746 mmHg 79%
    14:00 +21°C° 0.4 mm 4 mps 746 mmHg 79%
    15:00 +21°C° 0.7 mm 4 mps 747 mmHg 80%
    16:00 +21°C° 0.7 mm 4 mps 747 mmHg 82%
    17:00 +21°C° 0.7 mm 4 mps 747 mmHg 84%
    18:00 +20°C° 0.3 mm 3 mps 747 mmHg 87%
    19:00 +18°C° 0.3 mm 3 mps 747 mmHg 90%
    20:00 +17°C° 0.3 mm 3 mps 747 mmHg 93%
    21:00 +17°C° 0 mm 3 mps 747 mmHg 94%
    22:00 +16°C° 0 mm 2 mps 748 mmHg 94%
    23:00 +15°C° 0 mm 2 mps 748 mmHg 95%
    Show more